User: anonymous   Login
Location: Unspecified
(0.0000°N, 0.0000°E)
Time: 02:41:33
(UTC+00:00)
Language:

GALILEO 8 (264) - Orbit

View from above orbital plane
View from above orbital plane
View from above satellite
View from above satellite

Ground track
Ground track

The orbit data is extracted from the following two-line orbital elements,

1 40545U 15017B   18321.31569818 -.00000057 +00000-0 +00000-0 0  9991
2 40545 056.0210 057.4903 0002999 194.1758 165.8210 01.70475639022667
Epoch (UTC): 17 November 2018 07:34:36
Eccentricity: 0.0002999
inclination: 56.0210°
perigee height: 23213 km
apogee height: 23230 km
right ascension of ascending node: 57.4903°
argument of perigee: 194.1758°
revolutions per day: 1.70475639
mean anomaly at epoch: 165.8210°
orbit number at epoch: 2266

The dashed part of the orbit path shows where the satellite is in the earth's shadow,  

DLR